Weather History for Kolkata, India

Change the Weather History Date:

Tuesday, November 27, 2012

  Actual Average Record
Temperature  
Mean Temperature 70 °F -  
Max Temperature 81 °F 81 °F 87 °F (2000)
Min Temperature 59 °F 62 °F 57 °F (1996)
Cooling Degree Days 5    
Growing Degree Days 20 (Base 50)    
Moisture  
Dew Point 56 °F    
Average Humidity 67    
Maximum Humidity 88    
Minimum Humidity 23    
Precipitation  
Precipitation 0.00 in - - ()
Sea Level Pressure  
Sea Level Pressure 29.90 in    
Wind  
Wind Speed 1 mph ()    
Max Wind Speed 9 mph    
Max Gust Speed -    
Visibility 1.1 miles    
Events Fog    
Averages and records for this station are not official NWS values.
T = Trace of Precipitation, MM = Missing Value Source: Averaged Metar Reports

Daily Weather History Graph

Daily Weather History Graph

Search for Another Location

Airport:

Trip Planner

Search our weather history database for the weather conditions in past years. The results will help you decide how hot, cold, wet, or windy it might be!

Date:

Astronomy

Nov. 27, 2012 Rise Set
Actual Time 5:57 AM IST 4:50 PM IST
Civil Twilight 5:33 AM IST 5:14 PM IST
Nautical Twilight 5:05 AM IST 5:42 PM IST
Astronomical Twilight 4:38 AM IST 6:09 PM IST
Moon 3:58 PM IST (11/27) 4:40 AM IST (11/27)
Length of Visible Light 11h 41m
Length of Day
10h 53m
Waxing Gibbous, 98% of the Moon is Illuminated
Nov 27
Waxing Gibbous
Nov 28
Full
Dec 6
Last Quarter
Dec 13
New
Dec 20
First Quarter

Hourly Weather History & Observations

Time (IST) Temp. Heat Index Dew Point Humidity Pressure Visibility Wind Dir Wind Speed Gust Speed Precip Events Conditions
12:20 AM 62.6 °F - 55.4 °F 77% 29.89 in 1.2 mi Calm Calm - N/A   Haze
12:50 AM 62.6 °F - 55.4 °F 77% 29.89 in 1.2 mi Calm Calm - N/A   Haze
1:20 AM 62.6 °F - 55.4 °F 77% 29.89 in 1.2 mi Calm Calm - N/A   Haze
1:50 AM 62.6 °F - 57.2 °F 82% 29.86 in 1.1 mi Calm Calm - N/A   Mist
2:20 AM 62.6 °F - 57.2 °F 82% 29.89 in 1.1 mi Calm Calm - N/A   Mist
2:30 AM 62 °F - 55 °F 73% 29.90 in 1 mi Calm Calm - -   Haze
2:50 AM 60.8 °F - 57.2 °F 88% 29.89 in 1.0 mi Calm Calm - N/A   Mist
3:20 AM 60.8 °F - 57.2 °F 88% 29.89 in 1.0 mi Calm Calm - N/A   Mist
3:50 AM 60.8 °F - 57.2 °F 88% 29.89 in 1.0 mi Calm Calm - N/A   Mist
4:20 AM 60.8 °F - 57.2 °F 88% 29.89 in 0.9 mi Calm Calm - N/A   Mist
4:50 AM 60.8 °F - 57.2 °F 88% 29.89 in 0.9 mi Calm Calm - N/A   Mist
5:20 AM 60.8 °F - 55.4 °F 82% 29.89 in 0.8 mi Calm Calm - N/A   Mist
5:30 AM 60 °F - 56 °F 83% 29.91 in 1 mi Calm Calm - -   Haze
5:50 AM 60.8 °F - 57.2 °F 88% 29.89 in 0.7 mi Calm Calm - N/A Fog Shallow Fog
6:20 AM 60.8 °F - 57.2 °F 88% 29.92 in 0.6 mi Calm Calm - N/A Fog Shallow Fog
6:50 AM 62.6 °F - 57.2 °F 82% 29.92 in 0.6 mi Calm Calm - N/A Fog Shallow Fog
7:20 AM 62.6 °F - 57.2 °F 82% 29.95 in 0.6 mi Calm Calm - N/A Fog Shallow Fog
7:50 AM 64.4 °F - 59.0 °F 83% 29.95 in 0.7 mi Calm Calm - N/A Fog Shallow Fog
8:20 AM 66.2 °F - 60.8 °F 83% 29.98 in 0.7 mi Calm Calm - N/A   Mist
8:30 AM 71 °F - 58 °F 54% 29.99 in 1 mi Calm Calm - -   Haze
8:50 AM 68.0 °F - 60.8 °F 78% 29.98 in 0.8 mi Calm Calm - N/A   Mist
9:50 AM 71.6 °F - 60.8 °F 69% 29.98 in 1.2 mi NNW 8.1 mph - N/A   Haze
10:20 AM 73.4 °F - 59.0 °F 61% 29.98 in 1.2 mi NNW 5.8 mph - N/A   Haze
11:20 AM 78.8 °F - 57.2 °F 47% 29.95 in 1.7 mi NNW 9.2 mph - N/A   Haze
11:30 AM 80 °F - 50 °F 25% 29.94 in 1 mi NW 2.3 mph - -   Haze
12:20 PM 80.6 °F 80.3 °F 53.6 °F 39% 29.89 in 1.9 mi NNW 9.2 mph - N/A   Haze
1:20 PM 82.4 °F 81.4 °F 53.6 °F 37% 29.86 in - NNW 9.2 mph - N/A   Haze
2:20 PM 82.4 °F - 51.8 °F 35% 29.80 in - NNW 5.8 mph - N/A   Haze
2:30 PM 81 °F - 49 °F 23% 29.84 in 1 mi NW 2.3 mph - -   Haze
3:20 PM 80.6 °F - 50.0 °F 34% 29.77 in - North 6.9 mph - N/A   Haze
4:20 PM 78.8 °F - 50.0 °F 36% 29.83 in - North 3.5 mph - N/A   Haze
5:20 PM 73.4 °F - 51.8 °F 47% 29.83 in 1.7 mi Calm Calm - N/A   Haze
5:30 PM 73 °F - 54 °F 42% 29.84 in 1 mi Calm Calm - -   Haze
6:20 PM 71.6 °F - 55.4 °F 57% 29.86 in 1.7 mi Calm Calm - N/A   Haze
7:20 PM 68.0 °F - 57.2 °F 68% 29.86 in 1.7 mi Calm Calm - N/A   Haze
8:20 PM 68.0 °F - 57.2 °F 68% 29.89 in 1.6 mi Calm Calm - N/A   Haze
8:30 PM 65 °F - 55 °F 62% 29.92 in 1 mi Calm Calm - -   Haze
9:20 PM 64.4 °F - 55.4 °F 73% 29.89 in 1.2 mi Calm Calm - N/A   Haze
10:20 PM 64.4 °F - 55.4 °F 73% 29.92 in 1.1 mi Calm Calm - N/A   Mist
11:20 PM 62.6 °F - 55.4 °F 77% 29.89 in 1.1 mi Calm Calm - N/A   Mist
11:30 PM 62 °F - 55 °F 72% 29.92 in 1 mi Calm Calm - -   Haze